TIMESTAMP,CO2_1_1_1,H2O_1_1_1,TAU_1_1_1,TAU_SSITC_TEST_1_1_1,H_1_1_1,H_SSITC_TEST_1_1_1,LE_1_1_1,LE_SSITC_TEST_1_1_1,FC_1_1_1,FC_SSITC_TEST_1_1_1,WD_0_0_1,WS_0_0_1,WS_MAX_0_0_1,U_SIGMA_0_0_1,V_SIGMA_0_0_1,W_SIGMA_0_0_1,USTAR_0_0_1,MO_LENGTH_0_0_1,ZL_0_0_1,FETCH_MAX_0_0_1,FETCH_70_0_0_1,FETCH_80_0_0_1,FETCH_90_0_0_1,PA_0_0_1,RH_0_0_1,TA_0_0_1,VPD_0_0_1,T_SONIC_0_0_1,T_SONIC_SIGMA_0_0_1
[yyyymmddHHMMSS],[mmolCO2 mol-1],[mmolH2O mol-1],[kg m-1 s-2],[#],[W m-2],[#],[W m-2],[#],[umolCO2 m-2 s-1],[#],[Decimal degrees],[m s-1],[m s-1],[m s-1],[m s-1],[m s-1],[m s-1],[m],[#],[m],[m],[m],[m],[kPa],[%],[deg C],[hPa],[deg C],[deg C]
20191028003000,418.17885112313905,7.0484572609767850,0.50684172935241045,0,1.2033779212023383,2,-2.5811948458435121,2,1.0182229953291277,1,284.79164051938403,3.1424739869592599,7.5772891510544111,1.2235816618946984,1.1087253439866604,0.78423166877429351,0.65739019930133979,-19624.989545284760,-9.68153382000913024E-004,108.73215089052259,198.79705016875860,237.90929557693096,297.83420671829600,93.569922123115802,80.993103448275861,4.0600000000000023,1.5481391330900851,3.8895720850463817,0.12742767195968924
20191028010000,417.17240922759004,6.6400838531887159,0.63671173478996623,0,17.887406540718022,1,36.379192389605052,1,3.2974952691467481,0,278.45730243482581,3.0812978129221364,8.1034677336530851,1.3188529618259586,1.0615894585703138,0.88672153098574691,0.73606564385737971,-1853.5622799877076,-1.02505322886296563E-002,107.88432148967701,197.24694762269428,236.05421873100639,295.51187063862500,93.598695769184658,78.700999999999993,3.6243333333333112,1.6824369706093398,3.4053908234626533,0.13817807409847052
20191028013000,416.85242344466502,6.3733041252274862,0.27803516418565521,0,4.5236339552933051,1,8.4497820134047643,1,0.92872452060642463,0,267.41221375808016,2.4433629677307875,7.3273627401453201,1.0841751663444152,0.86974221270328922,0.64273321413119844,0.48610472053587428,-2111.1334742412605,-8.99990466345505780E-003,100.14151929547310,183.09063577158665,219.11272901772668,274.30313586790129,93.607652570963552,77.072666666666663,3.3410000000000082,1.7751932429696513,3.1168838492499162,6.70178108528927535E-002
20191028020000,417.01719542467976,6.3135185704052548,0.29775958523689949,0,1.0508168825204678,1,4.7952778884122171,0,1.1721740691134024,0,268.22303028463824,2.1824375254519710,6.9033423201667166,1.0877064102224230,0.89678072495892369,0.60779819698864956,0.50285121594929871,-10061.568912873823,-1.88837348971385697E-003,107.59670641478060,196.72109553566034,235.42490808732379,294.72404838945198,93.627542639802627,77.211333333333329,3.1853333333333467,1.7451366135563353,2.9618823690653926,4.69086854999734432E-002
20191028023000,417.12766356768577,6.2716906372945260,0.48401721792472657,0,0.19127564642936831,2,5.9982314931292704,0,1.4724148378867528,0,267.30718303961748,2.9705116067248070,8.3359139465821173,1.1842429313533211,1.0238292615946558,0.74711446991827868,0.64087417567823413,-114444.94184023373,-1.66018695929123609E-004,110.75501469437508,202.49549036152112,242.33538389286221,303.37514407109580,93.647970262236797,77.504666666666665,3.0409999999999968,1.7051557585791557,2.8062493953793251,5.79935370679428783E-002
20191028030000,417.14288189585807,6.1438495810866822,0.49352911671844296,0,11.588985452634541,1,32.892848074939451,1,2.2815675923640484,1,276.34514894667598,3.0275482247421257,8.0666318964024075,1.4058824591296946,0.88247892587069821,0.72097947719147160,0.64687194609350707,-1942.4953935801020,-9.78123297630177982E-003,114.80775672332773,209.90519534622186,251.20290829448965,314.47623236320851,93.654881916133050,76.991333333333330,2.8453333333333148,1.7200342145476213,2.5974645599151245,6.72621245104469273E-002
20191028033000,417.05529497549207,5.9694103625991994,0.41811409203461841,0,5.7044700048754633,1,13.768772429847584,1,1.4975670773741645,0,274.30573200819481,2.5769640149458928,6.5707577422299490,1.1024129001860949,0.86268853554302527,0.69008260152423917,0.59508644728105142,-3073.0295215279211,-6.18282377923695756E-003,111.22389123277310,203.35274621421473,243.36130020233662,304.65946955089981,93.686591870225698,75.791666666666671,2.6656666666666524,1.7867705604313551,2.4049488194783635,7.61362074407157946E-002
20191028040000,416.97134266582998,5.9350439492776816,0.27092057664510433,0,6.7469261284287878,1,4.0893226980735555,0,1.8565794236459392,0,267.13946008245125,2.6457024174265515,6.7067128558088980,1.0591573683049571,0.77944484260589808,0.55482351562837740,0.47878883278907614,-1353.4275056663637,-1.40384319961380562E-002,111.28745782846941,203.46896622467347,243.50038587185091,304.83358830462572,93.707976320963539,76.450666666666663,2.4660000000000082,1.7136191933261966,2.2056246956719860,7.46440936342199352E-002
20191028043000,416.50306697600672,5.8864049978159221,0.35260317819299702,0,1.6087461235345424,1,6.1916503728441041,0,1.6621577631768782,0,263.53979727765920,2.3864887864699953,7.1706424205099619,1.1944240092906688,0.75317133272086489,0.61121347651233027,0.54604286645215483,-8420.0772556526208,-2.25651136243967300E-003,114.41473340575943,209.18662337334897,250.34296116880350,313.39968060688756,93.713687781467016,76.670666666666662,2.3109999999999786,1.6789692251662722,2.0483302705553115,5.33429865820280735E-002
20191028050000,416.39430282515303,5.8786017925112350,0.39769649231042059,0,-2.0103657167999676,2,4.0175734535766763,1,1.2648306313117856,1,269.91963201526090,2.4572677537485661,6.4233155694032789,1.1570790137439180,0.75879162394531041,0.62278388887596492,0.57966799322215445,8063.0868513619671,2.35641762891226165E-003,118.23021014082059,216.16253172893173,258.69134179858173,323.85086250048607,93.748870944661448,77.280000000000001,2.1866666666666674,1.6206818992949092,1.9251236724853698,4.91446572868900824E-002
20191028053000,416.28792974850165,5.8843736075757533,0.23788987022987082,0,1.5805625601031055,1,3.0392299684535020,0,0.89802879217672904,0,280.33145314510688,2.6053244706477261,5.9926410949244069,1.0041707914118096,0.75648520880644021,0.53692366965204497,0.44818185404948413,-4740.0587683169388,-4.00838912103749362E-003,108.36481031119935,198.12543443248688,237.10554307366624,296.82800396095024,93.747319109592027,78.349666666666664,2.0076666666666938,1.5247653332398035,1.7422377293904674,5.88457843579792000E-002
20191028060000,416.06653971639349,5.8085344035799764,0.21489275755337708,0,-4.2582540965981854,1,5.1139866960655729,1,1.4549985366220375,0,275.23531265646136,1.9513858778826911,5.4884614649922403,0.85442889215833540,0.65965449452334812,0.46907170838020246,0.42589219909792819,1509.6238651579602,1.25859165574412311E-002,115.90528957838667,211.91183544542025,253.60434399019766,317.48254488950874,93.739688957679121,77.959000000000003,1.8949999999999818,1.5398257868002259,1.6330902835749725,3.31264989274328014E-002
20191028063000,416.06435591933649,5.7626865185777607,0.17314316107503289,0,-3.0266040035561672,0,5.0873754175237718,0,1.2238275546815764,0,267.79379544461256,2.0349236011392260,5.2976713915059612,0.84159409057349865,0.75330306084770438,0.45524050659966298,0.38222867825960233,1535.4731832991381,1.23740357087685163E-002,108.87315198629194,199.05484514181799,238.21781031792821,298.22043056433358,93.748867965277782,77.654333333333327,1.8403333333333194,1.5550169497637718,1.5731609191894904,2.93483825391602539E-002
20191028070000,415.76023237154971,5.6884286385085305,0.21438995450296511,0,0.12443968580996492,2,10.357383005799248,1,1.3501150351517939,0,256.23912186231473,2.3008078282081570,5.3536400147222407,0.86219293799075369,0.69639326596930540,0.50134619740047992,0.42525801618881226,-51438.073739375257,-3.69376195855789142E-004,109.76571905083529,200.68674240546781,240.17077455014027,300.66531003589671,93.768061148871524,76.806666666666672,1.8153333333333421,1.6111203445428828,1.5421173934936974,3.24678478869179291E-002
20191028073000,416.04956735164342,5.6145993994279033,0.29360449387678444,0,1.0178992658695993,1,9.8786739147333567,0,1.2835685031628972,0,255.76226091046112,2.3082032608451399,5.6171978191199194,0.95524354059396255,0.77302137531733806,0.59150764087988361,0.49753704886139427,-10071.680453949879,-1.88647764262106239E-003,109.03023627249496,199.34204531646057,238.56151557502727,298.65070876067210,93.783223805121523,76.270333333333326,1.7330000000000041,1.6386884963158013,1.4494143320719672,3.80616536971821462E-002
20191028080000,416.08653883574846,5.4924858819503575,0.29351254286407336,0,-2.0950533714980848,1,6.1207880552647529,1,1.1569807219973502,0,259.82743924948454,2.4340222045913076,5.6632874281199230,0.99740526183550771,0.74786379964507177,0.59795594475298541,0.49733811851109000,4887.6417530959516,3.88735528498277035E-003,108.05402454487621,197.55721893161189,236.42553424338274,295.97671359821857,93.788688326388893,75.179333333333332,1.6279999999999859,1.7011823281940337,1.3301479398940046,5.74282357957382472E-002
20191028083000,415.80443798301917,5.3359888819368493,0.27926369850720684,0,2.1141125862632295,1,5.2095938057554703,0,0.82120633037412649,0,254.16768444568970,2.7095401164532236,6.4175336076081608,1.1347348997410649,0.87136782113482691,0.55779068749350413,0.48495361522258962,-4490.7819966291891,-4.23088896638971253E-003,111.95359741749519,204.68688184773779,244.95791981266842,306.65824784125994,93.795421696831610,73.822000000000003,1.4800000000000182,1.7752670481928510,1.1635374603272339,6.69747371692832327E-002
20191028090000,415.23144170625591,5.1446855418562230,0.36786066909595189,0,0.20669781220974831,2,11.950218456409598,0,1.7958419411934028,0,263.95796922212764,2.7741722936546775,7.4326760387033488,1.1736382195456225,0.89549045107611758,0.62378226653940050,0.55633523552785591,-69338.746412258421,-2.74017068134375518E-004,114.26092460155124,208.90541182445426,250.00642276720828,312.97837446318988,93.785679895216916,72.504666666666665,1.2210000000000036,1.8302266458839807,0.88604591447210623,7.28070133497769889E-002
20191028093000,414.94581244752624,5.0801109638823840,0.28166984568687709,0,-9.2390254832592529,1,8.4301976273195880,1,1.6092566619076110,0,266.05225648277440,2.6476101140341002,6.8158395236234135,0.99420082342522054,0.88889723763051587,0.60487626508100278,0.48662439759031456,1038.0536230619716,1.83034860414582889E-002,105.21478409739386,192.36618186431778,230.21318868319815,288.19959414060918,93.776047058386922,72.822666666666663,0.98333333333334849,1.7783689324689642,0.64795093579823515,6.80322802042112873E-002
20191028100000,415.16857550286107,5.1056271222693201,0.22969058302357767,0,-9.7224339870019314,0,1.5036346871692994,1,0.63726281802332341,0,263.63075887842001,2.4353794562393154,5.8199741331470909,0.92740550807540489,0.70604319229343515,0.52853242681051349,0.43917367985620043,725.21128806305489,2.61992612535672624E-002,107.97087809577420,197.40520070445356,236.24360725147119,295.74896259258753,93.796052474175355,74.649333333333331,0.71233333333333348,1.6267229185441694,0.38404716322156673,8.90616782525915640E-002
20191028103000,415.77175516689772,5.1641673750628563,0.18562726827898754,0,-8.8365536222108325,0,2.7907312478950383,0,1.0093911099824198,0,258.56349904901668,1.7463312627892573,5.4123108918481142,0.79726765496757890,0.61765769859877495,0.47664543658481823,0.39466854742055624,579.11577700563009,3.28086381936289126E-002,107.66748340485996,196.85049844668862,235.57977032186000,294.91791753047005,93.801214896918410,76.520333333333326,0.52833333333330756,1.4867581441291884,0.20892194196915170,6.22156852001724062E-002
20191028110000,416.43340034067472,5.2150057033758177,0.21091580517202904,0,-9.9104353453079614,0,4.3549944479544003,1,1.3062788865545012,0,256.53864600228746,2.1329085084573025,5.1869624650091568,0.89576989324790157,0.66428498152351712,0.50636123479002015,0.42050480596735518,624.67567510924039,3.04157833529813196E-002,107.92034141657089,197.31280353702277,236.13303144062237,295.61053479880786,93.825758533420142,78.305666666666667,0.34866666666664514,1.3559587208885848,3.29122382270270464E-002,5.45642246350434290E-002
20191028113000,417.11890016132037,5.2504057716743269,0.14790984441468741,0,-10.140663636759440,0,1.4521949015049576,0,0.74742619789860654,0,258.55979210007257,1.9090297235495681,4.8192359464515429,0.84152686714255354,0.61373856033261587,0.42981717673334074,0.35198088344497708,358.03280866968430,5.30677623388674247E-002,106.71934417039884,195.11699753259452,233.50521247000057,292.32081727593220,93.824698520716993,80.298000000000002,9.53333333333148403E-002,1.2090161771107779,-0.21228501275959388,0.10684904545696268
20191028120000,417.31661330994399,5.2096199042890001,0.21841684825126945,0,1.7499730902625337,1,11.088720522196249,0,2.3682127103296939,0,274.70050638198956,2.2301259715131700,7.0266900888137176,0.93799409465024786,0.75390836753728474,0.55442556696097012,0.42748983811955144,-3717.2191099828851,-5.11134787534423245E-003,101.69999623429729,185.94002866648330,222.52272456781813,278.57204565182354,93.838172183376741,81.179999999999993,-0.16033333333331257,1.1336333907083462,-0.47335482364223935,5.39499840585681428E-002
20191028123000,415.80701910811621,4.8018657250968237,0.36650173355120852,0,12.009718908837149,1,17.123083697907539,1,2.1638620115707674,1,274.19659599854401,2.0233285893751281,5.7698692207019935,1.0202037671488482,0.77410188612809805,0.56757721989319876,0.55343166256432785,-1175.3172848760726,-1.61658475072996057E-002,122.71174623738659,224.35620902608329,268.49708082889038,336.12648417510968,93.854500328143232,76.119666666666660,-0.39333333333331666,1.4142464577486595,-0.74912535457974627,0.10558444267067049
20191028130000,416.05440767287274,4.8334268235785922,0.16368122405333768,0,1.0032140901478650,0,2.6897049116067331,0,0.93665905469941380,0,275.59774754415884,1.6469647489813695,4.4818775533237005,0.78819865464785910,0.62363840031418383,0.41948958728492614,0.36970687635940086,-4194.4742245768120,-4.52976916359926901E-003,113.17851058601424,206.92641378580856,247.63806755810106,310.01347478064048,93.854980555989599,77.818333333333328,-0.60599999999999454,1.2934248506468913,-0.94287007734510553,2.77468527519033475E-002
20191028133000,415.68627496680796,4.7247392056868600,0.29711507038555429,0,10.445652592649633,0,9.1870069178897058,0,0.96684998616715911,0,259.63838728261112,2.0533591940622324,5.3531707027783861,1.0250063111692969,0.69033560445547304,0.50977221441234122,0.49796054439452164,-984.53662891907197,-1.92984186082138971E-002,122.88812506069303,224.67868576822795,268.88300312752835,336.60961309779850,93.882864087673624,76.454999999999998,-0.67133333333333667,1.3663861556779018,-1.0321427044338520,6.88804421915227977E-002
20191028140000,415.20401986695907,4.6132082805454209,0.29436669733079673,0,22.761105864770812,0,17.278338840138403,1,0.72767109372215988,1,253.61696449891656,2.2180747876301816,5.4199514526638293,0.98603397469718701,0.73059324050083108,0.56080756817811184,0.49555195727356693,-445.37728129366468,-4.26604606880972223E-002,113.41621868943835,207.36102001197898,248.15818021084806,310.66459410306715,93.906839999791657,74.827666666666673,-0.70033333333333303,1.4577331830105658,-1.0679011616774687,9.08163750362461636E-002
20191028143000,414.57227213209177,4.4052370076088714,0.22105707539401268,0,22.961338510471293,0,20.927917977575454,0,0.82995458165791569,0,255.39719434951371,2.4536875931870608,5.6233894903646187,0.94914132346386793,0.79960106060137981,0.57835057369599230,0.42949328849440449,-287.43980100663515,-6.61007972224466334E-002,98.688618289674366,180.43426935397736,215.93373686129800,270.32341492098499,93.917441390407987,70.804333333333332,-0.57366666666666788,1.7064382187618230,-0.97779166666663286,0.10170876483492426
20191028150000,414.63878128083496,4.4689667959339063,0.33556677157994680,0,39.103450254562603,1,3.8400932613652818,0,-1.4438562345940769,1,250.04325075240072,2.1557555170514577,6.2047186703746133,1.2645595501377147,0.77594758570953881,0.57526192608464255,0.52921153347400818,-315.82988887932453,-6.01589674347120171E-002,117.12937755414367,214.14985866794026,256.28268618844737,320.83551149807022,93.947811445312510,71.192666666666668,-0.44733333333334713,1.6993313594398916,-0.83071930440269171,0.17283155735010700
20191028153000,413.69317527294311,4.3013934730091643,0.72161993269040203,0,81.425763270578159,0,29.781189205834522,0,-0.89596302585160459,2,240.41653225274459,2.5684702360481819,8.7064513990450223,1.4787638751917132,1.0154632639299059,0.79750909789643498,0.77655555547838506,-479.25956026220422,-3.96444882384924119E-002,122.57570722936107,224.10748633199637,268.19942328873077,335.75385225615850,93.961147153862839,66.537000000000006,-4.13333333333412156E-002,2.0331790178044171,-0.47278132205542533,0.21860298104244916
20191028160000,413.08356009388137,4.0648130906652753,0.59536417374631956,0,70.028510609649857,0,18.493226516608985,0,-0.41131852400969610,0,233.87768768464727,2.8301742981802334,8.4697991476806997,1.4439997129712296,1.3868859824827673,0.74131051263011305,0.70536205835783683,-417.52507845448599,-4.55062485595608898E-002,120.33291814923784,220.00695259264160,263.29213169365340,329.61050549952608,93.937782384828665,63.046333333333330,-8.16666666666492347E-002,2.2386957071737532,-0.55245425520325853,0.22763370863180774
20191028163000,412.77193266204927,4.0855995145564288,0.58874554112001753,0,127.93056010049030,0,12.196999324442221,1,-1.3090376923670930,1,215.83315636293975,2.3652778547127342,8.8404649725214117,1.2385249482269278,1.3010134955199013,0.81805176049746620,0.70207504520401720,-225.37081064518395,-8.43055049835754744E-002,110.79932182740207,202.57649793172979,242.43232926477984,303.49650817278035,93.936513495442711,61.126666666666665,0.41466666666667606,2.4413372535408828,-3.93012813991617804E-002,0.33719863744161993
20191028170000,413.00907399245443,4.0110309404436002,0.73542360543659102,0,117.97208682160453,0,32.091515035600771,0,-1.2936757721754504,1,222.57377288154839,2.9187548515659452,7.9013091950962240,1.4092165765873936,1.5406948959864457,0.87718161391678862,0.78474833533574695,-341.35845707547185,-5.56599656641851986E-002,114.54275014511640,209.42067880173840,250.62306573799512,313.75033828909812,93.961282658203132,59.453333333333333,0.54733333333331302,2.5709899311733682,5.91282653808775649E-002,0.23823298915362037
20191028173000,413.06619773076346,3.9742703625265534,0.52637102479787512,0,93.551594183885882,0,27.986170416934240,0,-1.1196686906833784,0,223.23601188255020,3.3927216884236784,7.8380222418931718,1.3741118080239370,1.3882910293105759,0.88506646069526085,0.66402553277167997,-260.78917389297010,-7.28557850633698018E-002,99.499756079317024,181.91728793257354,217.70853133164755,272.54524699308934,93.958160635633689,58.515999999999998,0.63933333333335440,2.6479780937602730,0.13275812276208399,0.21064223041960367
20191028180000,413.01203126737153,3.9527437277689108,0.59404317339883150,0,179.90364227485640,0,18.891755391069065,1,0.53985526289889407,2,213.00211869998500,2.6673926147134082,7.5201244233346349,1.3988654469667841,1.4849083880770737,0.87281972953521614,0.70603077613615051,-162.96354093825724,-0.11659049558329504,105.67546368461194,193.20845107597097,231.22116981098875,289.46146690121111,93.919500017385261,56.668333333333329,1.0029999999999859,2.8394607069639806,0.44132691448362493,0.36082535731560095
20191028183000,413.39221919917316,4.0847761688463651,0.47573944346411512,0,193.94224441377418,0,23.473025744736816,0,-0.99663417200175886,0,242.48424772661974,3.1948969306109851,8.4356933961761449,1.5878852511897934,1.3625865301539977,0.79790768717495097,0.63225201110966411,-108.52472528736871,-0.17507531071549670,103.94532370239099,190.04520338862542,227.43557023396846,284.72234544636922,93.877213297526040,57.572333333333333,1.2333333333333485,2.8267034517627314,0.57731351894807403,0.45833366137068415
20191028190000,413.26954394510932,4.0586611913729813,0.45993114348108838,0,174.57762769156326,0,35.466344663666739,0,-0.69644854048199034,0,227.07259049466253,2.3559675405832468,7.4558045950686811,1.2608020940131146,1.2487901708272537,0.81788176555738124,0.62191151269154488,-114.73790860609574,-0.16559479104006064,100.57391505765000,183.88119313040121,220.05882426506093,275.48753484981762,93.871097631727437,56.351999999999997,1.4413333333333185,2.9517949713055138,0.80935069274903526,0.44833114340284685
20191028193000,413.14460878206978,3.9356626829956882,0.51542326895340906,0,232.04931577784564,0,27.239293420273011,0,-0.62872621685736807,1,255.36354697390618,2.4752987526014039,6.7586037199205133,1.1350205809751299,1.1383595175483783,0.81453642570729390,0.65877187467054332,-102.59508425558805,-0.18519405815454679,105.66095479467523,193.18192419779356,231.18942391286961,289.42172480387126,93.870577747445040,53.274666666666668,1.7953333333333603,3.2411229515516240,1.1224674160399104,0.41073597793711025
20191028200000,412.48935016629315,3.8474225738754213,0.74509449053239396,0,205.90442104238673,0,46.758644537826129,0,-8.99388755885645735E-002,1,241.46871212376766,2.7720483062465546,7.6948213781625396,1.3279818978367275,1.4634574911287546,0.85179737398961519,0.79227635130585838,-201.12775960325899,-9.44673178753597104E-002,118.16455304642983,216.04248962012917,258.54768205352747,323.67101754696364,93.873894388671886,51.458666666666666,1.9636666666666542,3.4078806404646884,1.2236778072781362,0.39947774650412426
20191028203000,412.01057496231374,3.6021834898687359,0.25337085933853920,0,108.04012992537315,0,39.319396196749850,1,0.52078825620282954,2,242.99870290006172,2.9702780874111228,7.7525786890028865,1.3651685677454426,1.1495328603051893,0.74265621760028178,0.46173385867710831,-75.880977478284294,-0.25039213557096629,85.612665850864687,156.52725793469966,187.32315012833735,234.50635538704631,93.890183757161466,49.067333333333337,1.7106666666666683,3.5116114683944892,0.97698960367841892,0.27542314744086649
20191028210000,411.82884625055317,3.5521211595049413,0.59314593115322500,0,109.19811013664903,0,23.492875146458999,0,-0.76153730595504743,0,257.22342132559027,2.2909818157442952,7.0963262694717102,1.3709259449005691,1.3968978757743178,0.77233289845572650,0.70656242066677821,-269.02505613845403,-7.06253918230636130E-002,116.60890049103114,213.19826059892523,255.14386634137443,319.40984418681404,93.895111709635415,48.073666666666668,1.8016666666666765,3.6035258518833890,1.1109222802056138,0.24534313922311837
20191028213000,411.54628204566467,3.4006130060723141,0.26440241375736534,0,63.165591516329208,0,14.149598631664734,0,-0.68890409933920116,1,233.29004553026650,2.3055399850853502,6.0839846725917006,0.92054011555148940,1.2792742663968562,0.59666793764891235,0.47164921110688157,-138.34507532057134,-0.13733774011090352,103.74424838094352,189.67757357133488,226.99561123663713,284.17156898914419,93.907667203955143,46.204333333333331,1.7486666666666792,3.7191126109584487,1.0794422118706848,0.18616888482731539
20191028220000,411.42542615367660,3.3280064133617295,0.23673424598527443,0,30.357697491728675,0,17.326512651712694,0,0.30991601375883981,2,247.81050122647085,1.4311079373940905,5.9011469872663902,0.84383237194838334,0.93716766102339333,0.53354535218932475,0.44613730076204533,-243.65651740659203,-7.79786241805899005E-002,108.51571974427884,198.40134500625132,237.43573756191844,297.24136827793865,93.925875996961807,45.640000000000001,1.6216666666666697,3.7240859894712632,1.0446898998684446,9.87315283359660317E-002
20191028223000,411.68145880711381,3.3119625361248022,0.12626678275289907,0,-5.98886542017957532E-002,2,8.8228518488838290,1,-7.81580126491272231E-002,0,248.09196772723436,1.7064584934627192,4.2483939883547910,0.79289452780922842,0.65795706799489206,0.40473575327003952,0.32570749661258303,48067.548850663326,3.95277072667661144E-004,105.23975953211814,192.41184492450014,230.26783570372814,288.26800572566134,93.948270907781506,45.851999999999997,1.4929999999999950,3.6754864223606791,0.96307832684306049,8.88468718953632636E-002